This is the latest recevied weather packets stored in our database for station/object N8ASV. If no packets are shown the sender has not sent any weather packets the latest 10 day(s).
| Time | Temp. | Humidity | Pressure | Rain* | Wind** | Luminosity | Snow |
|---|---|---|---|---|---|---|---|
| 1777857316 | 13.89° C | 57% | 1010.5 hPa | 0 mm | - | - | - |
| 1777856116 | 14.44° C | 50% | 1010.7 hPa | 0 mm | - | - | - |
| 1777854916 | 15° C | 46% | 1010.6 hPa | 0 mm | - | - | - |
| 1777854316 | 15° C | 47% | 1010.5 hPa | 0 mm | - | - | - |
| 1777853116 | 15.56° C | 44% | 1010.7 hPa | 0 mm | - | - | - |
| 1777851916 | 15.56° C | 47% | 1010.6 hPa | 0 mm | - | - | - |
| 1777851316 | 15.56° C | 44% | 1010.5 hPa | 0 mm | - | - | - |
| 1777845917 | 16.67° C | 41% | 1011.9 hPa | 0 mm | - | - | - |
| 1777842917 | 16.67° C | 42% | 1012.5 hPa | 0 mm | - | - | - |
| 1777833917 | 17.22° C | 42% | 1014.8 hPa | 0 mm | - | - | - |
| 1777832717 | 16.11° C | 41% | 1015.2 hPa | 0 mm | - | - | - |
| 1777826716 | 16.11° C | 42% | 1016.5 hPa | 0 mm | - | - | - |
| 1777822516 | 15° C | 48% | 1017.4 hPa | 0 mm | - | - | - |
| 1777821316 | 14.44° C | 46% | 1017.6 hPa | 0 mm | - | - | - |
| 1777820716 | 13.89° C | 48% | 1017.7 hPa | 0 mm | - | - | - |
| 1777818316 | 12.78° C | 56% | 1017.6 hPa | 0 mm | - | - | - |
| 1777817716 | 12.22° C | 55% | 1017.6 hPa | 0 mm | - | - | - |
| 1777815916 | 10° C | 63% | 1017.8 hPa | 0 mm | - | - | - |
| 1777815316 | 9.44° C | 66% | 1017.9 hPa | 0 mm | - | - | - |
| 1777813517 | 7.22° C | 73% | 1018 hPa | 0 mm | - | - | - |
| 1777799117 | -0.56° C | 91% | 1016.9 hPa | 0 mm | - | - | - |
| 1777798517 | -0.56° C | 91% | 1016.8 hPa | 0 mm | - | - | - |
| 1777797317 | -0.56° C | 91% | 1016.8 hPa | 0 mm | - | - | - |
| 1777794316 | -0.56° C | 90% | 1016.7 hPa | 0 mm | - | - | - |
| 1777790116 | 0° C | 89% | 1016.9 hPa | 0 mm | - | - | - |
* Rain latest hour (hover to see other rain measurements)
** Current wind speed in m/s (hover to see current wind gust speed)